Torna al catalogo

STARLINK-35274

AttivoComunicazioniVLEO
NORAD 66073·PAYLOAD·🇺🇸 United States

Lanciato Oct 19, 2025 da Cape Canaveral Space Force Station

Loading…

Prossimi Passaggi (prossime 24 ore)

TLE

AggiornatoSource: CelesTrak SupGP

Epoca: Sep 15, 2026, 04:03 UTC

1 66073C 25235R   26258.16923611 -.00024690  00000+0 -72951-3 0  2588
2 66073  53.1581  84.7603 0001114  89.3292  42.0018 15.34401484    15

Traccia STARLINK-35274 in tempo reale con AllMySat

Download on the App Store